Flag for Canada Weather past 2 weeks in Kamloops, British Columbia, Canada

Now
32 °F

Clear.


Feels Like: 25 °F
Forecast: 18 / 43 °F
Wind: 8 mph from East

Location: Kamloops

Current Time: Mar 3, 2015 at 8:32:40 PM

Latest Report: Mar 3, 2015 at 7:00 PM


Visibility: 40 mi

Pressure: 30.29 "Hg

Humidity: 32%

Dew point: 5 °F

Location of KamloopsLocation

Historic Weather in Kamloops — Graph

°F

Kamloops temperature yesterday

Maximum temperature yesterday: 43 °F (at 2:00 PM)
Minimum temperature yesterday: 30 °F (at 9:00 PM)
Average temperature yesterday: 39 °F

Past Weeks' High & Low Weather Summary

 TemperatureHumidityPressure
High50 °F (Feb 20, 1:00 PM)93% (Feb 17, 3:00 AM)30.60 "Hg (Feb 17, 3:00 AM)
Low23 °F (Mar 3, 6:00 AM)13% (Mar 3, 4:00 PM)29.98 "Hg (Feb 27, 1:00 AM)
Average36 °F62%30.30 "Hg
* Reported Feb 16 7:00 PM — Mar 3 7:00 PM, Kamloops, Weather by CustomWeather, © 2015

Note: Actual official high and low records may vary slightly from our data, if they occured in-between our weather recording intervals... More about our weather records

Advertising

Kamloops weather history for previous 24 hours

 ConditionsComfort  
Time TempWeatherWind HumidityBarometerVisibility
7:00 PM
Tue, Mar 3
32 °FClear.8 mph32%30.29 "Hg40 mi
6:00 PM36 °FPassing clouds.6 mph21%30.27 "Hg40 mi
5:00 PM39 °FPassing clouds.7 mph20%30.26 "Hg40 mi
4:00 PM43 °FSunny.13 mph13%30.26 "Hg40 mi
3:00 PM41 °FSunny.12 mph14%30.28 "Hg40 mi
2:00 PM41 °FSunny.15 mph17%30.30 "Hg40 mi
1:00 PM39 °FSunny.13 mph18%30.33 "Hg40 mi
12:00 PM36 °FSunny.14 mph21%30.36 "Hg40 mi
11:00 AM34 °FSunny.14 mph23%30.38 "Hg40 mi
10:00 AM30 °FSunny.9 mph26%30.40 "Hg40 mi
9:00 AM28 °FSunny.14 mph29%30.42 "Hg40 mi
8:00 AM27 °FSunny.8 mph31%30.41 "Hg40 mi
7:00 AM25 °FSunny.8 mph33%30.40 "Hg40 mi
6:00 AM23 °FClear.13 mph36%30.40 "Hg40 mi
5:00 AM25 °FClear.13 mph33%30.40 "Hg40 mi
4:00 AM25 °FClear.15 mph36%30.39 "Hg40 mi
3:00 AM27 °FClear.13 mph36%30.39 "Hg40 mi
2:00 AM27 °FClear.14 mph36%30.37 "Hg40 mi
1:00 AM28 °FClear.14 mph37%30.36 "Hg40 mi
12:00 AM27 °FClear.12 mph43%30.34 "Hg40 mi
11:00 PM
Mon, Mar 2
34 °FClear.7 mph25%30.33 "Hg40 mi
10:00 PM34 °FClear.7 mph25%30.31 "Hg40 mi
9:00 PM30 °FClear.3 mph37%30.29 "Hg40 mi
8:00 PM36 °FClear.7 mph25%30.26 "Hg40 mi
Weather by CustomWeather, © 2015

See weather overviewHow to use our weather pages